Location: Lombard
(41.8800°N, 88.0080°W)
Time: 00:15:44
(UTC-05:00)

A-11 Canister half - Pass Details

Date: 07 February 2023
Orbit: 1512 x 1687 km, 47.2° (Epoch: 20 March)

Event Time Altitude Azimuth Distance (km) Brightness Sun altitude
Rises 17:02:17 0° 295° (WNW) 4,715 12.3 1.3°
Reaches altitude 10° 17:05:44 10° 287° (WNW) 3,710 12.0 0.7°
Maximum altitude 17:13:41 33° 227° (SW) 2,324 10.9 -0.6°
Drops below altitude 10° 17:21:34 10° 168° (SSE) 3,660 11.1 -2.0°
Sets 17:24:58 0° 159° (SSE) 4,644 11.5 -2.6°
